Location: Boullarre
(49.1305°N, 3.0047°E)
Time: 09:05:53
(UTC+00:00)

CSL-04 Debris - Pass Details

Date: 03 February 2023
Orbit: 826 x 845 km, 98.8° (Epoch: 23 March)

Event Time Altitude Azimuth Distance (km) Brightness Sun altitude
Exits shadow 18:39:47 28° 114° (ESE) 1,504 5.0 -18.5°
Maximum altitude 18:41:59 42° 66° (ENE) 1,176 4.5 -18.9°
Drops below altitude 10° 18:47:02 10° 357° (N) 2,444 6.6 -19.7°
Sets 18:49:29 0° 350° (N) 3,380 7.4 -20.1°
